Content
SEND FEEDBACK

Daily
Averages
Monthly
Summary
United States of America

NEW YORK - CENTRAL PARK, NEW YORK


Home > North America > United States > New York
Elevation: 14 feet     Latitude: 40 47N     Longitude: 073 58W

WEATHER
 
SELECT A DAY
Number of Records: 148,192;   Date Range: 11/1/95 - 8/28/14
 
SHARE

PRINT THIS DATA

[ ← Previous Day ]
WEATHER ALMANAC - JULY 11, 2013
[ Next Day → ]
[ °C ]   °F
Weather ElementAverageHighLow
Temperature79.7 °F82.9 °F (6:51 pm)77 °F (6:51 am)
Dewpoint67.2 °F73 °F (2:51 am)57.9 °F (10:51 pm)
Humidity66.5 %82 % (4:51 am)47 % (7:51 pm)
Barometer29.86 in29.93 in (11:51 pm)29.80 in (4:51 am)
Wind Speed3.9 mph8.1 mph (11:51 pm)
Weather ElementAverage
Visibility9 mi
Wind DirectionNNE (35.2 °)

Weather ElementTotal
Precipitation---
Cooling Degree Days15 (Base 65)
Growing Degree Days30 (Base 50)
Averaged from 25 records on July 11, 2013
WEATHER CONDITIONS BREAKOUT
WIND DIRECTION BREAKOUT
WEATHER BY HOUR - JULY 11, 2013
[ °C ]   °F
Local TimeTemperatureDewpointHumidityBarometerVisibilityWind DirectionWind SpeedGust SpeedPrecipitationEventsConditions
1:51 AM81.0 °F72.0 °F74 %29.81 in8.0 miVariable3.5 mphMostly Cloudy
2:51 AM81.0 °F73.0 °F77 %29.82 in8.0 miWSW (250°)3.5 mphScattered Clouds
3:51 AM80.1 °F72.0 °F76 %29.81 in8.0 miVariable3.5 mphPartly Cloudy
4:51 AM79.0 °F73.0 °F82 %29.80 in8.0 miCalmOvercast
5:51 AM79.0 °F71.1 °F77 %29.82 in9.0 miVariable3.5 mphOvercast
6:51 AM77.0 °F71.1 °F82 %29.83 in8.0 miNorth0.00 inOvercast
7:13 AM78.1 °F71.1 °F79 %29.87 in8.0 miWSW (240°)5.8 mphMostly Cloudy
7:32 AM78.1 °F72.0 °F81 %29.87 in8.0 miVariable4.6 mphMostly Cloudy
7:51 AM78.1 °F71.1 °F79 %29.85 in8.0 miVariable4.6 mphMostly Cloudy
8:51 AM78.1 °F72.0 °F81 %29.85 in7.0 miWest (280°)3.5 mphMostly Cloudy
9:51 AM78.1 °F66.0 °F66 %29.86 in9.0 miVariable3.5 mphOvercast
10:51 AM77.0 °F66.9 °F71 %29.87 in9.0 miVariable4.6 mph0.00 inMostly Cloudy
11:51 AM78.1 °F66.0 °F66 %29.86 in10.0 miCalmClear
12:51 PM80.1 °F66.0 °F62 %29.87 in10.0 miVariable3.5 mphClear
1:51 PM80.1 °F66.9 °F64 %29.86 in10.0 miVariable4.6 mphClear
2:51 PM82.0 °F66.9 °F60 %29.86 in9.0 miENE (60°)3.5 mphClear
3:51 PM82.0 °F66.0 °F58 %29.85 in9.0 miCalmClear
4:51 PM81.0 °F68.0 °F65 %29.85 in9.0 miVariable3.5 mphScattered Clouds
5:51 PM82.0 °F69.1 °F65 %29.86 in9.0 miVariable4.6 mphClear
6:51 PM82.9 °F64.0 °F53 %29.87 in10.0 miVariable6.9 mphScattered Clouds
7:51 PM82.0 °F60.1 °F47 %29.89 in10.0 miVariable4.6 mphClear
8:51 PM81.0 °F60.1 °F49 %29.90 in10.0 miCalmClear
9:51 PM79.0 °F59.0 °F50 %29.92 in10.0 miVariable6.9 mphClear
10:51 PM79.0 °F57.9 °F48 %29.92 in10.0 miVariable5.8 mphClear
11:51 PM78.1 °F57.9 °F50 %29.93 in10.0 miNE (50°)8.1 mphClear
Hourly data recorded from KNYC, located miles away from New York - Central Park, New York







STORIES FROM OUR PARTNERS